Stations météo

Publicité
Perpignan, France (7747): Température de l'air & dewpoint: 11.02.2019 17:00:00 - 17.02.2019 17:00:00 (CET)Perpignan, France (7747): Température de l'air 5cm: 11.02.2019 17:00:00 - 17.02.2019 17:00:00 (CET)Perpignan, France (7747): Température de l'air -20cm & Température de l'air -100cm: 11.02.2019 17:00:00 - 17.02.2019 17:00:00 (CET)Perpignan, France (7747): Vitesse du vent & gusts: 11.02.2019 17:00:00 - 17.02.2019 17:00:00 (CET)Perpignan, France (7747): Direction du vent: 11.02.2019 17:00:00 - 17.02.2019 17:00:00 (CET)Perpignan, France (7747): reduced air pressure: 11.02.2019 17:00:00 - 17.02.2019 17:00:00 (CET)Perpignan, France (7747): visibility: 11.02.2019 17:00:00 - 17.02.2019 17:00:00 (CET)Perpignan, France (7747): Quantités de précipitations: 11.02.2019 17:00:00 - 17.02.2019 17:00:00 (CET)
Date & Time tt [°C] td [°C] tt 5cm [°C] tt -20cm [°C] tt -100cm [°C] ff [km/h] ff [knt] fx [km/h] fx [knt] dd ppp [hPa] vv [km] rr [mm]
17.02.2019 17:00:00 15,4 8,8 17,0 10,6 11,2 16 8 28 15 ESE 1022,8 43 0,0
17.02.2019 16:00:00 15,9 9,6 18,5 10,3 11,1 21 11 30 16 ESE 1023,1 20 0,0
17.02.2019 15:00:00 17,2 7,8 18,8 10,0 11,2 18 10 25 13 ESE 1023,4 60 0,0
17.02.2019 14:00:00 16,4 5,0 21,4 9,7 11,2 5 3 14 7 E 1024,2 60 0,0
17.02.2019 13:00:00 15,1 6,1 20,5 9,5 11,1 6 4 18 10 N 1025,2 48 0,0
17.02.2019 12:00:00 13,2 4,3 19,7 9,3 11,2 10 6 19 10 ENE 1026,0 32 0,0
17.02.2019 11:00:00 11,9 4,4 16,7 9,3 11,1 10 5 17 9 NE 1026,4 36 0,0
17.02.2019 10:00:00 9,6 5,6 13,4 9,4 11,2 9 5 14 7 N 1026,6 43 0,0
17.02.2019 09:00:00 6,1 4,6 1,7 9,5 11,1 7 4 14 8 NNW 1026,6 33 0,0
17.02.2019 08:00:00 4,6 2,3 -0,1 9,7 11,1 8 4 17 9 NW 1026,2 34 0,0
17.02.2019 07:00:00 4,0 3,3 -1,5 9,8 11,1 8 5 13 7 NW 1026,0 34 0,0
17.02.2019 06:00:00 3,1 2,5 -1,9 10,0 11,1 6 3 10 5 WNW 1026,0 20 0,0
17.02.2019 05:00:00 3,3 2,9 -1,7 10,2 11,1 5 3 9 5 W 1025,9 17 0,0
17.02.2019 04:00:00 3,2 2,8 -1,1 10,4 11,1 6 3 8 4 W 1026,1 15 0,0
17.02.2019 03:00:00 4,1 3,5 -0,9 10,5 11,1 3 1 10 5 NNW 1026,4 14 0,0
17.02.2019 02:00:00 5,8 5,4 1,1 10,7 11,1 6 3 11 6 NNW 1026,7 16 0,0
17.02.2019 01:00:00 5,9 5,2 1,4 10,8 11,0 8 4 12 6 WNW 1027,0 12 0,0
17.02.2019 00:00:00 8,4 7,8 5,8 10,9 11,1 8 4 13 7 NNW 1027,1 16 0,0
16.02.2019 23:00:00 8,7 8,2 6,1 11,0 11,1 9 5 13 7 NNW 1027,4 21 0,0
16.02.2019 22:00:00 9,1 8,3 6,6 11,1 11,1 9 5 13 7 NNW 1027,7 20 0,0
16.02.2019 21:00:00 8,9 8,3 6,5 11,3 11,0 8 4 13 7 N 1027,8 10 0,0
16.02.2019 20:00:00 9,1 8,3 7,6 11,3 11,0 10 6 18 10 N 1028,1 8 0,0
16.02.2019 19:00:00 9,7 8,8 8,7 11,3 11,0 11 6 19 10 NNE 1028,2 10 0,0
16.02.2019 18:00:00 11,5 9,2 10,9 11,2 11,0 12 7 22 12 ENE 1028,1 22 0,0
16.02.2019 17:00:00 13,0 8,9 14,2 11,0 11,0 16 9 24 13 E 1028,4 20 0,0
16.02.2019 16:00:00 12,7 8,2 13,7 10,8 11,0 17 9 22 12 E 1029,0 19 0,0
16.02.2019 15:00:00 13,3 8,4 15,6 10,5 11,1 15 8 24 13 E 1029,4 23 0,0
16.02.2019 14:00:00 13,3 7,7 18,3 10,3 11,0 14 8 24 13 E 1029,8 19 0,0
16.02.2019 13:00:00 12,8 8,3 15,1 10,0 11,0 9 5 21 12 NNE 1030,5 25 0,0
16.02.2019 12:00:00 12,1 8,0 13,2 9,9 11,1 9 5 16 9 ENE 1031,1 20 0,0
16.02.2019 11:00:00 11,6 7,1 14,6 9,9 11,0 6 4 12 6 E 1031,2 15 0,0
16.02.2019 10:00:00 9,6 6,9 9,5 9,9 11,0 4 2 9 5 SW 1031,1 22 0,0
16.02.2019 09:00:00 8,2 6,2 6,6 9,9 11,1 5 3 7 4 WSW 1031,3 22 0,0
16.02.2019 08:00:00 7,4 5,9 6,2 9,9 11,0 3 1 8 4 SW 1030,6 19 0,0
16.02.2019 07:00:00 7,2 5,7 5,9 9,9 11,0 6 3 10 5 WSW 1030,2 17 0,0
16.02.2019 06:00:00 7,5 5,8 6,7 10,0 11,0 8 4 11 6 WSW 1030,1 15 0,0
16.02.2019 05:00:00 8,0 6,3 7,1 10,0 11,0 8 4 10 6 WSW 1029,8 18 0,0
16.02.2019 04:00:00 8,2 6,7 7,7 10,0 11,0 6 3 11 6 WSW 1029,8 15 0,0
16.02.2019 03:00:00 8,2 6,5 7,5 10,1 11,0 8 5 12 6 WSW 1029,9 14 0,0
16.02.2019 02:00:00 8,2 6,5 7,3 10,1 11,0 6 4 9 5 WSW 1029,6 20 0,0
16.02.2019 01:00:00 8,2 6,7 7,3 10,1 11,0 4 2 7 4 SW 1029,6 21 0,0
16.02.2019 00:00:00 9,3 7,9 8,3 10,2 11,0 5 3 7 4 WSW 1029,5 26 0,0
15.02.2019 23:00:00 10,1 8,5 9,5 10,2 11,0 5 3 10 5 NNW 1029,6 27 0,0
15.02.2019 22:00:00 9,9 8,8 9,0 10,2 11,1 6 4 10 5 N 1029,6 17 0,0
15.02.2019 21:00:00 9,6 8,5 7,9 10,3 11,0 8 4 12 6 N 1029,5 15 0,0
15.02.2019 20:00:00 9,6 8,4 7,4 10,3 11,0 7 4 11 6 NNW 1029,5 19 0,0
15.02.2019 19:00:00 10,0 8,4 7,9 10,2 11,0 5 3 15 8 N 1029,5 15 0,0
15.02.2019 18:00:00 11,5 8,4 10,6 10,1 11,0 10 5 20 11 NE 1029,3 53 0,0
15.02.2019 17:00:00 12,3 8,8 12,6 9,9 11,0 13 7 22 12 ENE 1029,4 20 0,0
15.02.2019 16:00:00 12,4 6,7 16,3 9,7 11,0 15 8 27 14 ENE 1029,3 24 0,0
15.02.2019 15:00:00 12,2 6,0 15,4 9,4 10,9 12 6 23 13 ENE 1029,4 20 0,0
15.02.2019 14:00:00 12,2 6,7 17,9 9,1 11,0 10 5 24 13 ENE 1029,7 20 0,0
15.02.2019 13:00:00 11,2 5,9 13,0 8,9 11,0 9 5 16 9 E 1030,6 15 0,0
15.02.2019 12:00:00 8,6 6,9 9,0 8,8 11,0 5 3 10 6 NE 1031,5 10 0,0
15.02.2019 11:00:00 7,2 6,6 8,3 8,8 11,0 5 3 13 7 NNE 1031,6 7 0,0
15.02.2019 10:00:00 6,7 6,4 6,8 8,8 11,0 4 2 8 4 ENE 1031,7 7 0,0
15.02.2019 09:00:00 5,5 5,4 2,4 8,9 11,0 3 2 6 3 ENE 1031,6 0,9 0,0
15.02.2019 08:00:00 3,6 3,2 -0,7 9,0 11,0 0 0 5 3 N 1031,2 8 0,0
15.02.2019 07:00:00 4,0 3,3 -0,9 9,0 11,0 0 0 6 3 N 1031,0 7 0,0
15.02.2019 06:00:00 5,7 5,3 4,3 9,1 11,0 2 1 4 2 NNE 1030,8 12 0,0
15.02.2019 05:00:00 5,2 4,9 1,8 9,2 10,9 0 0 6 3 N 1030,6 10 0,0
15.02.2019 04:00:00 4,9 4,6 0,9 9,3 11,0 5 3 10 5 W 1030,7 11 0,0
15.02.2019 03:00:00 3,6 3,3 -0,9 9,5 11,0 8 4 11 6 WSW 1030,9 10 0,0
15.02.2019 02:00:00 4,0 3,6 -1,5 9,6 11,0 3 2 5 3 WSW 1031,1 3,2 0,0
15.02.2019 01:00:00 5,0 4,1 -0,7 9,7 11,0 4 2 11 6 N 1031,0 10 0,0
15.02.2019 00:00:00 5,2 4,3 -0,6 9,9 11,1 6 4 9 5 NNW 1030,8 21 0,0
14.02.2019 23:00:00 5,7 4,8 1,0 10,0 11,0 7 4 10 6 W 1031,0 29 0,0
14.02.2019 22:00:00 6,9 5,5 3,2 10,1 11,0 9 5 14 7 W 1031,1 30 0,0
14.02.2019 21:00:00 8,9 7,3 6,1 10,1 11,0 11 6 15 8 NNW 1030,9 28 0,0
14.02.2019 20:00:00 9,3 7,7 7,5 10,1 11,1 9 5 15 8 N 1031,0 20 0,0
14.02.2019 19:00:00 9,9 8,0 8,4 10,1 11,1 12 7 24 13 NNE 1031,0 20 0,0
14.02.2019 18:00:00 11,4 8,6 10,8 9,9 11,0 18 10 27 15 NNE 1030,9 26 0,0
14.02.2019 17:00:00 13,4 8,5 15,4 9,7 11,1 16 9 26 14 NE 1031,0 31 0,0
14.02.2019 16:00:00 14,5 8,4 17,5 9,5 11,0 19 10 30 16 E 1031,1 43 0,0
14.02.2019 15:00:00 15,1 6,6 16,8 9,2 11,0 16 9 32 17 E 1031,4 41 0,0
14.02.2019 14:00:00 14,5 6,1 17,7 8,9 11,1 19 11 29 16 E 1032,2 46 0,0
14.02.2019 13:00:00 13,5 6,1 17,4 8,6 11,0 19 11 27 15 E 1033,2 36 0,0
14.02.2019 12:00:00 12,0 6,1 17,0 8,5 11,1 12 6 25 14 E 1034,4 20 0,0
14.02.2019 11:00:00 10,9 6,2 14,8 8,4 10,9 9 5 15 8 SE 1034,6 12 0,0
14.02.2019 10:00:00 9,3 5,8 11,9 8,5 11,0 5 3 11 6 E 1034,6 15 0,0
14.02.2019 09:00:00 6,6 6,3 -1,1 8,6 11,1 6 4 9 5 N 1034,9 6 0,0
14.02.2019 08:00:00 3,8 3,7 -2,3 8,8 11,1 4 2 5 3 NW 1034,9 4,4 0,0
14.02.2019 07:00:00 4,1 3,4 -1,8 8,8 11,1 0 0 5 3 N 1034,8 2,8 0,0
14.02.2019 06:00:00 4,6 3,9 1,4 8,9 11,1 6 4 9 5 NNE 1034,8 11 0,0
14.02.2019 05:00:00 6,4 5,3 0,6 8,9 11,0 4 2 6 3 N 1034,4 13 0,0
14.02.2019 04:00:00 7,1 6,2 6,2 8,9 11,1 0 0 4 2 N 1034,3 17 0,0
14.02.2019 03:00:00 6,5 5,6 4,4 9,0 11,0 3 1 10 5 W 1034,6 18 0,0
14.02.2019 02:00:00 4,5 3,8 -0,6 9,1 11,1 7 4 10 5 WNW 1034,9 20 0,0
14.02.2019 01:00:00 4,0 2,8 -0,6 9,3 11,1 8 4 10 6 WSW 1035,0 25 0,0
14.02.2019 00:00:00 4,6 3,6 1,4 9,4 11,0 5 3 10 5 WSW 1034,7 22 0,0
13.02.2019 23:00:00 4,1 2,9 1,1 9,5 11,1 9 5 11 6 W 1034,6 19 0,0
13.02.2019 22:00:00 4,5 3,0 0,3 9,6 11,1 8 4 11 6 W 1034,4 21 0,0
13.02.2019 21:00:00 4,7 2,9 0,1 9,7 11,1 7 4 9 5 W 1034,2 27 0,0
13.02.2019 20:00:00 5,6 3,3 0,6 9,8 11,1 5 3 6 4 W 1034,0 29 0,0
13.02.2019 19:00:00 7,7 4,1 1,5 9,8 11,0 0 0 8 4 N 1033,8 41 0,0
13.02.2019 18:00:00 9,7 4,9 8,3 9,7 11,1 7 4 18 10 ENE 1033,4 40 0,0
13.02.2019 17:00:00 10,9 4,4 12,8 9,5 11,1 13 7 22 12 ENE 1033,1 43 0,0
13.02.2019 16:00:00 11,5 2,8 14,9 9,2 11,0 13 7 19 10 ENE 1033,0 34 0,0
13.02.2019 15:00:00 11,9 2,1 14,0 9,0 11,0 12 7 21 11 ENE 1032,8 60 0,0
13.02.2019 14:00:00 11,8 0,8 16,8 8,7 11,0 14 8 22 12 E 1033,2 50 0,0
13.02.2019 13:00:00 11,9 0,3 17,1 8,5 11,0 12 7 22 12 ENE 1033,7 46 0,0
13.02.2019 12:00:00 11,7 0,4 17,9 8,4 11,0 8 4 16 9 E 1033,9 44 0,0
13.02.2019 11:00:00 11,7 0,4 17,2 8,4 11,1 3 2 7 4 ENE 1033,7 46 0,0
13.02.2019 10:00:00 8,6 0,1 12,9 8,5 11,1 0 0 5 3 N 1033,6 48 0,0
13.02.2019 09:00:00 4,0 -0,8 -2,8 8,6 11,1 5 3 11 6 WSW 1033,3 53 0,0
13.02.2019 08:00:00 -0,1 -3,5 -4,0 8,8 11,1 5 3 10 5 WSW 1033,0 60 0,0
13.02.2019 07:00:00 1,4 -3,5 -3,7 9,0 11,1 4 2 9 5 WSW 1032,2 60 0,0
13.02.2019 06:00:00 1,9 -5,1 -3,1 9,1 11,0 5 3 17 9 SW 1032,1 60 0,0
13.02.2019 05:00:00 1,6 -4,1 -2,4 9,3 11,1 14 8 19 11 W 1031,3 60 0,0
13.02.2019 04:00:00 3,3 -2,2 -3,1 9,5 11,1 7 4 12 6 WSW 1031,2 60 0,0
13.02.2019 03:00:00 5,6 -1,3 -1,9 9,6 11,1 3 1 13 7 SSW 1030,8 60 0,0
13.02.2019 02:00:00 8,7 -1,2 2,1 9,7 11,1 4 2 23 13 W 1030,5 60 0,0
13.02.2019 01:00:00 7,8 -0,7 2,9 9,8 11,1 6 3 29 15 W 1030,4 60 0,0
13.02.2019 00:00:00 9,8 0,7 5,2 9,9 11,0 22 12 40 21 WNW 1030,6 60 0,0
12.02.2019 23:00:00 9,0 0,7 0,8 10,1 11,0 15 8 22 12 W 1031,3 60 0,0
12.02.2019 22:00:00 9,5 -1,3 5,4 10,2 11,0 10 5 25 14 NW 1031,4 60 0,0
12.02.2019 21:00:00 10,1 -0,4 7,2 10,3 11,1 18 10 39 21 W 1030,9 60 0,0
12.02.2019 20:00:00 10,0 1,1 4,2 10,3 11,1 13 7 22 12 WSW 1030,9 60 0,0
12.02.2019 19:00:00 11,8 -2,4 9,5 10,3 11,0 17 9 36 19 NW 1030,3 60 0,0
12.02.2019 18:00:00 13,4 -3,0 11,4 10,2 11,0 20 11 41 22 NW 1029,7 59 0,0
12.02.2019 17:00:00 15,5 -4,0 16,2 10,1 11,1 24 13 35 19 NW 1029,5 37 0,0
12.02.2019 16:00:00 16,5 -3,1 17,4 9,8 11,1 20 11 43 23 NW 1029,7 35 0,0
12.02.2019 15:00:00 16,1 -2,0 16,9 9,6 11,0 27 15 49 26 NW 1029,8 32 0,0
12.02.2019 14:00:00 15,0 0,4 18,4 9,4 11,0 31 17 45 25 NW 1030,4 41 0,0
12.02.2019 13:00:00 14,3 -0,6 18,2 9,2 11,1 26 14 44 24 NNW 1031,2 36 0,0
12.02.2019 12:00:00 13,6 1,6 16,5 9,1 11,0 22 12 47 26 NW 1032,2 38 0,0
12.02.2019 11:00:00 12,0 1,9 15,0 9,0 11,0 27 14 52 28 NNW 1032,4 39 0,0
12.02.2019 10:00:00 10,6 2,2 12,2 9,1 11,0 34 18 50 27 NW 1032,9 44 0,0
12.02.2019 09:00:00 9,3 1,9 6,0 9,2 11,0 27 14 46 25 NW 1032,6 43 0,0
12.02.2019 08:00:00 7,6 1,9 5,9 9,2 11,1 16 9 46 25 WNW 1032,4 60 0,0
12.02.2019 07:00:00 8,6 1,7 7,4 9,3 11,1 27 15 46 25 NNW 1031,5 60 0,0
12.02.2019 06:00:00 8,8 2,1 6,9 9,4 11,0 29 15 46 25 NW 1031,6 60 0,0
12.02.2019 05:00:00 8,8 2,6 7,2 9,4 11,0 23 12 50 27 NW 1031,4 60 0,0
12.02.2019 04:00:00 9,1 2,6 7,8 9,5 11,0 28 15 53 29 NW 1031,3 60 0,0
12.02.2019 03:00:00 9,6 2,9 7,2 9,6 11,0 36 19 57 31 NW 1031,3 60 0,0
12.02.2019 02:00:00 8,8 3,2 4,7 9,6 11,1 16 9 28 15 WNW 1032,2 60 0,0
12.02.2019 01:00:00 8,9 2,9 5,7 9,7 11,0 9 5 27 14 WNW 1032,3 60 0,0
12.02.2019 00:00:00 9,3 3,1 7,3 9,8 11,0 4 2 57 31 NNE 1032,2 60 0,0
11.02.2019 23:00:00 9,8 2,4 8,1 9,8 11,0 26 14 53 28 NW 1031,0 60 0,0
11.02.2019 22:00:00 10,0 2,1 8,4 9,9 11,1 21 12 50 27 NNW 1031,1 60 0,0
11.02.2019 21:00:00 10,0 3,0 6,6 10,0 11,0 32 17 50 27 NW 1030,1 60 0,0
11.02.2019 20:00:00 9,8 2,2 6,3 10,0 11,0 6 3 29 16 NNW 1030,4 60 0,0
11.02.2019 19:00:00 10,0 2,3 7,8 10,1 11,1 17 9 32 17 NW 1029,7 60 0,0
11.02.2019 18:00:00 10,6 2,4 9,5 10,0 11,0 17 9 48 26 WNW 1029,2 60 0,0
11.02.2019 17:00:00 11,8 2,3 11,9 10,0 11,0 24 13 59 32 NW 1027,9 48 0,0

tt = Température de l'air
td = dewpoint
tt 5cm = Température de l'air 5cm
tt -20cm = Température de l'air -20cm
tt -100cm = Température de l'air -100cm
ff = Vitesse du vent
fx = gusts
dd = Direction du vent
ppp = reduced air pressure
vv = visibility
rr = Quantités de précipitations

stations d'obs. à proximité